�������l�o���
Date,Time,MP-1(��Sv/h),MP-2(��Sv/h),MP-3(��Sv/h),MP-4(��Sv/h),MP-5(��Sv/h),MP-6(��Sv/h),MP-7(��Sv/h),����,����(m/s),���J
2023/06/17,00:00,0.140,0.127,0.200,0.192,0.203,0.111,0.073,�k��,2.1,��
2023/06/17,00:10,0.139,0.126,0.199,0.192,0.205,0.111,0.073,���k��,1.7,��
2023/06/17,00:20,0.140,0.127,0.200,0.192,0.203,0.111,0.073,���k��,3.4,��
2023/06/17,00:30,0.140,0.127,0.199,0.192,0.205,0.112,0.072,���k��,2.4,��
2023/06/17,00:40,0.140,0.127,0.200,0.192,0.204,0.110,0.073,�k��,2.0,��
2023/06/17,00:50,0.140,0.126,0.199,0.192,0.207,0.112,0.073,�k��,2.0,��
2023/06/17,01:00,0.139,0.127,0.199,0.192,0.203,0.111,0.073,���k��,1.2,��
2023/06/17,01:10,0.141,0.127,0.200,0.192,0.205,0.111,0.073,��,1.1,��
2023/06/17,01:20,0.140,0.127,0.199,0.193,0.204,0.111,0.073,�쐼,0.8,��
2023/06/17,01:30,0.141,0.127,0.200,0.192,0.206,0.111,0.072,���쐼,1.1,��
2023/06/17,01:40,0.140,0.127,0.199,0.193,0.204,0.111,0.073,�쐼,0.9,��
2023/06/17,01:50,0.142,0.127,0.200,0.192,0.206,0.113,0.072,�쐼,1.0,��
2023/06/17,02:00,0.139,0.127,0.199,0.192,0.204,0.111,0.073,��쐼,2.1,��
2023/06/17,02:10,0.140,0.128,0.201,0.192,0.205,0.111,0.072,��,1.4,��
2023/06/17,02:20,0.140,0.127,0.198,0.193,0.205,0.111,0.073,-,CALM,��
2023/06/17,02:30,0.142,0.127,0.201,0.192,0.203,0.111,0.072,-,CALM,��
2023/06/17,02:40,0.139,0.127,0.200,0.193,0.205,0.111,0.073,-,CALM,��
2023/06/17,02:50,0.140,0.128,0.199,0.192,0.203,0.112,0.073,�k��,0.9,��
2023/06/17,03:00,0.140,0.127,0.200,0.192,0.204,0.111,0.073,-,CALM,��
2023/06/17,03:10,0.141,0.128,0.200,0.191,0.205,0.112,0.072,��,1.2,��
2023/06/17,03:20,0.140,0.127,0.199,0.193,0.205,0.112,0.073,��,1.4,��
2023/06/17,03:30,0.141,0.127,0.198,0.193,0.205,0.111,0.073,��,3.1,��
2023/06/17,03:40,0.139,0.127,0.200,0.192,0.205,0.111,0.072,��,2.0,��
2023/06/17,03:50,0.141,0.127,0.200,0.193,0.205,0.112,0.073,��,2.1,��
2023/06/17,04:00,0.140,0.128,0.200,0.192,0.206,0.111,0.073,���쐼,2.9,��
2023/06/17,04:10,0.141,0.127,0.200,0.193,0.203,0.111,0.073,��,4.1,��
2023/06/17,04:20,0.139,0.128,0.199,0.191,0.205,0.111,0.072,��,2.0,��
2023/06/17,04:30,0.141,0.127,0.200,0.193,0.203,0.112,0.074,���k��,1.5,��
2023/06/17,04:40,0.141,0.127,0.198,0.192,0.205,0.112,0.073,�k�k��,1.0,��
2023/06/17,04:50,0.141,0.128,0.200,0.192,0.204,0.112,0.073,-,CALM,��
2023/06/17,05:00,0.140,0.127,0.199,0.192,0.205,0.111,0.073,-,CALM,��
2023/06/17,05:10,0.141,0.128,0.200,0.192,0.204,0.112,0.073,-,CALM,��
2023/06/17,05:20,0.141,0.126,0.200,0.191,0.205,0.111,0.073,��,0.6,��
2023/06/17,05:30,0.141,0.128,0.200,0.193,0.202,0.112,0.072,-,CALM,��
2023/06/17,05:40,0.139,0.127,0.200,0.191,0.206,0.111,0.073,��,0.7,��
2023/06/17,05:50,0.141,0.128,0.198,0.193,0.204,0.112,0.072,���k��,1.0,��
2023/06/17,06:00,0.140,0.126,0.201,0.190,0.203,0.111,0.073,��,2.6,��
2023/06/17,06:10,0.141,0.127,0.199,0.193,0.205,0.112,0.072,���k��,1.8,��
2023/06/17,06:20,0.141,0.127,0.199,0.191,0.203,0.111,0.072,��,2.4,��
2023/06/17,06:30,0.141,0.127,0.199,0.192,0.204,0.111,0.072,��,1.5,��
2023/06/17,06:40,0.141,0.127,0.200,0.192,0.204,0.112,0.073,���쐼,2.0,��
2023/06/17,06:50,0.140,0.126,0.200,0.190,0.203,0.112,0.072,���쐼,2.0,��
2023/06/17,07:00,0.141,0.129,0.199,0.192,0.205,0.111,0.073,��,2.6,��
2023/06/17,07:10,0.139,0.128,0.201,0.193,0.205,0.110,0.073,��,2.1,��
2023/06/17,07:20,0.140,0.127,0.200,0.190,0.202,0.112,0.072,���쐼,0.7,��
2023/06/17,07:30,0.141,0.128,0.197,0.193,0.204,0.111,0.073,-,CALM,��
2023/06/17,07:40,0.140,0.127,0.198,0.193,0.206,0.112,0.072,��,0.8,��
2023/06/17,07:50,0.142,0.127,0.198,0.191,0.204,0.111,0.072,��쓌,0.9,��
2023/06/17,08:00,0.140,0.127,0.198,0.190,0.203,0.111,0.072,-,CALM,��
2023/06/17,08:10,0.139,0.126,0.198,0.190,0.203,0.111,0.072,�쓌,1.3,��
2023/06/17,08:20,0.140,0.127,0.199,0.190,0.203,0.110,0.073,�쓌,1.9,��
2023/06/17,08:30,0.140,0.127,0.199,0.191,0.203,0.111,0.072,�쓌,2.0,��
2023/06/17,08:40,0.140,0.127,0.199,0.191,0.203,0.112,0.073,��쓌,3.1,��
2023/06/17,08:50,0.137,0.126,0.200,0.191,0.204,0.111,0.072,��쓌,3.5,��
2023/06/17,09:00,0.141,0.127,0.199,0.191,0.203,0.111,0.073,��쓌,3.7,��
2023/06/17,09:10,0.141,0.127,0.200,0.191,0.204,0.110,0.072,��쓌,3.9,��
2023/06/17,09:20,0.140,0.127,0.199,0.193,0.203,0.111,0.072,��쓌,4.6,��
2023/06/17,09:30,0.139,0.126,0.199,0.192,0.204,0.112,0.072,��쓌,4.1,��
2023/06/17,09:40,0.138,0.128,0.201,0.192,0.205,0.111,0.073,��쓌,5.2,��
2023/06/17,09:50,0.139,0.126,0.199,0.192,0.205,0.113,0.073,�쓌,5.5,��
2023/06/17,10:00,0.139,0.127,0.200,0.192,0.203,0.113,0.073,��쓌,4.5,��
2023/06/17,10:10,0.138,0.126,0.200,0.193,0.205,0.112,0.072,�쓌,5.9,��
2023/06/17,10:20,0.139,0.127,0.200,0.191,0.205,0.112,0.073,�쓌,5.8,��
2023/06/17,10:30,0.140,0.127,0.200,0.192,0.205,0.112,0.072,��쓌,4.7,��
2023/06/17,10:40,0.139,0.128,0.201,0.193,0.206,0.112,0.072,��쓌,2.8,��
2023/06/17,10:50,0.140,0.128,0.201,0.193,0.205,0.112,0.073,��쓌,2.6,��
2023/06/17,11:00,0.138,0.127,0.199,0.193,0.205,0.112,0.072,��쓌,2.6,��
2023/06/17,11:10,0.139,0.128,0.200,0.191,0.205,0.112,0.072,�쓌,3.1,��
2023/06/17,11:20,0.139,0.127,0.201,0.192,0.204,0.112,0.072,�쓌,3.1,��
2023/06/17,11:30,0.139,0.126,0.200,0.192,0.205,0.113,0.072,��쓌,4.0,��
2023/06/17,11:40,0.140,0.127,0.201,0.193,0.206,0.111,0.072,��쓌,4.3,��
2023/06/17,11:50,0.139,0.128,0.200,0.193,0.206,0.112,0.073,��,4.5,��
2023/06/17,12:00,0.140,0.128,0.201,0.194,0.207,0.112,0.073,��,4.7,��
2023/06/17,12:10,0.140,0.128,0.202,0.194,0.206,0.112,0.073,��쓌,3.9,��
2023/06/17,12:20,0.141,0.128,0.201,0.193,0.207,0.113,0.072,��쓌,6.4,��
2023/06/17,12:30,0.141,0.129,0.202,0.194,0.206,0.113,0.073,��쓌,6.2,��
2023/06/17,12:40,0.140,0.129,0.201,0.193,0.207,0.113,0.072,��쓌,5.9,��
2023/06/17,12:50,0.140,0.128,0.201,0.194,0.206,0.114,0.073,��쓌,5.6,��
2023/06/17,13:00,0.141,0.128,0.200,0.195,0.207,0.113,0.073,��쓌,5.7,��
2023/06/17,13:10,0.141,0.128,0.202,0.194,0.207,0.112,0.073,��쓌,5.3,��
2023/06/17,13:20,0.141,0.128,0.202,0.192,0.206,0.113,0.073,��쓌,5.7,��
2023/06/17,13:30,0.142,0.128,0.202,0.194,0.207,0.113,0.073,��쓌,5.8,��
2023/06/17,13:40,0.140,0.128,0.202,0.195,0.205,0.112,0.073,��쓌,5.2,��
2023/06/17,13:50,0.141,0.128,0.202,0.195,0.207,0.113,0.072,��쓌,5.4,��
2023/06/17,14:00,0.141,0.128,0.203,0.195,0.205,0.113,0.073,��쓌,6.1,��
2023/06/17,14:10,0.142,0.127,0.201,0.194,0.207,0.113,0.073,��쓌,6.9,��
2023/06/17,14:20,0.141,0.129,0.201,0.194,0.207,0.113,0.073,��쓌,7.7,��
2023/06/17,14:30,0.142,0.128,0.204,0.196,0.206,0.113,0.073,��쓌,6.1,��
2023/06/17,14:40,0.141,0.128,0.203,0.195,0.206,0.113,0.073,��쓌,6.0,��
2023/06/17,14:50,0.141,0.129,0.202,0.193,0.206,0.113,0.073,��,5.0,��
2023/06/17,15:00,0.142,0.129,0.202,0.195,0.206,0.113,0.073,��,4.6,��
2023/06/17,15:10,0.141,0.128,0.204,0.194,0.207,0.112,0.073,��쓌,5.0,��
2023/06/17,15:20,0.142,0.129,0.203,0.195,0.207,0.113,0.073,��,4.4,��
2023/06/17,15:30,0.141,0.129,0.203,0.195,0.206,0.113,0.073,��,3.3,��
2023/06/17,15:40,0.141,0.128,0.203,0.195,0.208,0.113,0.073,��,2.9,��
2023/06/17,15:50,0.141,0.128,0.204,0.196,0.207,0.113,0.074,��,3.3,��
2023/06/17,16:00,0.140,0.128,0.202,0.195,0.208,0.113,0.073,��,3.4,��
2023/06/17,16:10,0.141,0.128,0.203,0.195,0.208,0.113,0.073,��쐼,2.3,��
2023/06/17,16:20,0.141,0.129,0.201,0.194,0.207,0.113,0.073,��,3.2,��
2023/06/17,16:30,0.142,0.127,0.203,0.194,0.206,0.113,0.073,��쐼,2.9,��
2023/06/17,16:40,0.141,0.128,0.202,0.194,0.206,0.112,0.074,��,5.3,��
2023/06/17,16:50,0.141,0.128,0.202,0.194,0.206,0.113,0.073,��,5.4,��
2023/06/17,17:00,0.140,0.129,0.202,0.194,0.206,0.112,0.074,��,5.2,��
2023/06/17,17:10,0.141,0.130,0.205,0.197,0.206,0.112,0.074,��,5.4,��
2023/06/17,17:20,0.141,0.128,0.204,0.196,0.206,0.113,0.074,��,5.5,��
2023/06/17,17:30,0.140,0.129,0.203,0.196,0.206,0.113,0.072,��,5.5,��
2023/06/17,17:40,0.140,0.128,0.202,0.193,0.206,0.115,0.073,��,4.1,��
2023/06/17,17:50,0.141,0.129,0.201,0.195,0.206,0.112,0.074,��쐼,4.6,��
2023/06/17,18:00,0.142,0.129,0.204,0.197,0.205,0.113,0.074,��쐼,4.3,��
2023/06/17,18:10,0.142,0.129,0.205,0.195,0.205,0.113,0.073,��쐼,4.4,��
2023/06/17,18:20,0.141,0.129,0.204,0.195,0.205,0.114,0.074,��쐼,3.6,��
2023/06/17,18:30,0.141,0.130,0.202,0.196,0.207,0.112,0.073,��쐼,3.5,��
2023/06/17,18:40,0.141,0.129,0.206,0.198,0.210,0.113,0.073,��쐼,3.8,��
2023/06/17,18:50,0.142,0.129,0.204,0.195,0.209,0.113,0.074,��쐼,3.6,��
2023/06/17,19:00,0.142,0.129,0.203,0.195,0.206,0.114,0.074,��쐼,4.1,��
2023/06/17,19:10,0.141,0.130,0.204,0.197,0.207,0.113,0.075,��쐼,4.0,��
2023/06/17,19:20,0.143,0.129,0.204,0.196,0.209,0.114,0.073,��쐼,2.8,��
2023/06/17,19:30,0.142,0.129,0.204,0.196,0.207,0.113,0.074,��쐼,3.1,��
2023/06/17,19:40,0.141,0.130,0.207,0.198,0.206,0.114,0.074,��쐼,2.9,��
2023/06/17,19:50,0.143,0.130,0.205,0.197,0.210,0.113,0.074,�쐼,3.5,��
2023/06/17,20:00,-,-,-,-,-,-,-,-,-,-
2023/06/17,20:10,0.142,0.129,0.206,0.198,0.206,0.114,0.074,�쐼,3.1,��
2023/06/17,20:20,0.143,0.129,0.205,0.195,0.210,0.114,0.074,�쐼,2.9,��
2023/06/17,20:30,0.142,0.129,0.206,0.197,0.210,0.113,0.074,�쐼,4.2,��
2023/06/17,20:40,0.142,0.130,0.204,0.196,0.207,0.114,0.074,��쐼,4.6,��
2023/06/17,20:50,0.143,0.130,0.205,0.196,0.210,0.114,0.074,��쐼,3.2,��
2023/06/17,21:00,0.142,0.129,0.206,0.197,0.209,0.113,0.074,��쐼,3.7,��
2023/06/17,21:10,0.142,0.129,0.203,0.196,0.205,0.115,0.074,��쐼,3.5,��
2023/06/17,21:20,0.143,0.130,0.205,0.195,0.209,0.113,0.075,��쐼,3.7,��
2023/06/17,21:30,0.141,0.130,0.205,0.197,0.207,0.114,0.073,��쐼,4.1,��
2023/06/17,21:40,0.142,0.130,0.205,0.195,0.206,0.113,0.074,��쐼,3.0,��
2023/06/17,21:50,0.142,0.130,0.205,0.196,0.209,0.113,0.074,�쐼,2.1,��
2023/06/17,22:00,0.141,0.129,0.204,0.197,0.207,0.114,0.074,�쐼,1.3,��
2023/06/17,22:10,0.142,0.129,0.204,0.196,0.206,0.113,0.074,��,1.4,��
2023/06/17,22:20,0.140,0.129,0.203,0.198,0.209,0.113,0.074,��,1.4,��
2023/06/17,22:30,-,-,-,-,-,-,-,-,-,-
2023/06/17,22:40,0.142,0.129,0.204,0.197,0.206,0.113,0.073,��,2.2,��
2023/06/17,22:50,0.141,0.130,0.204,0.195,0.208,0.113,0.073,���쐼,2.2,��
2023/06/17,23:00,0.143,0.129,0.204,0.196,0.206,0.113,0.075,���쐼,1.7,��
2023/06/17,23:10,0.142,0.129,0.203,0.197,0.207,0.114,0.073,�쐼,2.4,��
2023/06/17,23:20,0.142,0.129,0.205,0.195,0.208,0.113,0.073,��,2.0,��
2023/06/17,23:30,0.143,0.128,0.205,0.197,0.207,0.113,0.073,��쐼,1.9,��
2023/06/17,23:40,0.141,0.130,0.205,0.196,0.208,0.114,0.074,��쐼,3.2,��
2023/06/17,23:50,0.141,0.128,0.203,0.196,0.208,0.115,0.073,��,2.9,��
